Volver al catálogo

STARLINK-3733

ActivoComunicacionesVLEO
NORAD 52137·PAYLOAD·🇺🇸 United States

Lanzado Mar 19, 2022 desde Cape Canaveral Space Force Station

Loading…

Próximos Pases (próximas 24 horas)

TLE

ActualizadoSource: CelesTrak SupGP

Época: Sep 15, 2026, 02:49 UTC

1 52137C 22029BB  26258.11784722  .00010070  00000+0  29751-3 0  2580
2 52137  53.1592 294.5261 0001278  90.2682  53.7217 15.34388485    14

Sigue STARLINK-3733 en tiempo real con AllMySat

Download on the App Store